Presure
165 163 166 164 211 177 193 232 207 233 248 277 267 263 218 268 270 277 272 268 267 274 276 280 248 235 276
177 216 210 185 222 232 233 232 260 264 263 259 259 263 262 261 270 277 273 270 279 268 280 271 282 265 268
219 182 222 227 222 234 232 248 265 260 267 269 281 274 273 286 293 283 284 280 282 285 308 296 271 307 283
220 226 228 234 240 244 261 273 275 278 305 327 388 412 314 306 300 296 286 263 255 307 311 273 295 323 314
227 236 242 249 286 283 300 302 313 383 388 396 374 347 392 358 378 377 349 346 338 298 307 311 309 316 323
242 241 289 288 330 355 339 290 370 377 428 381 347 340 342 349 323 316 307 295 306 304 310 298 309 316 361
254 270 297 299 302 415 387 370 385 403 396 355 346 343 340 325 317 318 318 307 302 308 287 303 306 340 330
284 291 297 290 316 376 338 343 428 347 343 346 332 316 308 306 301 303 294 290 284 294 304 303 327 336 328
295 296 308 356 367 337 339 317 350 357 341 330 318 307 299 297 286 297 303 290 294 301 299 326 319 314 307
300 306 373 365 337 315 326 319 339 341 331 319 309 302 297 296 287 303 282 281 313 320 313 307 309 307 300
373 363 351 326 316 334 318 339 328 328 320 315 312 299 300 299 306 300 308 293 329 305 294 305 304 300 316
376 359 329 312 318 317 307 338 323 312 310 311 297 297 304 298 295 300 306 328 308 295 301 309 310 317 286
443 405 338 322 325 322 312 321 324 323 309 321 313 309 303 302 300 326 324 312 297 304 308 317 324 290 276
427 391 359 334 321 320 303 321 339 324 320 317 319 322 320 320 321 322 307 299 300 309 375 326 291 272 274
389 363 344 328 320 309 323 306 308 309 313 310 310 310 309 306 300 308 294 299 315 351 325 290 274 274 262
354 345 333 317 326 311 305 304 306 304 306 312 322 353 356 322 311 299 297 306 345 318 291 274 269 262 256
341 336 323 313 300 303 312 311 296 303 310 354 357 367 369 367 320 309 305 329 317 287 274 266 262 257 254
Wind_Speed
117 126 128 128 126 129 134 130 134 139 140 124 125 128 111 127 128 120 121 118 113 110 108 105 95 88 100
127 126 121 133 126 133 134 141 142 136 130 129 127 129 131 125 129 119 118 109 109 109 104 99 95 96 96
128 112 133 132 134 138 140 141 129 133 132 133 131 133 133 127 115 111 112 106 107 102 95 91 92 82 90
136 136 140 140 141 142 134 133 132 134 122 112 78 69 105 104 100 97 99 98 101 88 79 89 79 60 61
143 145 145 145 134 131 128 118 103 77 70 58 50 59 31 49 42 39 55 59 61 75 65 65 63 59 58
148 151 136 136 122 110 101 95 75 64 44 39 49 31 33 23 35 34 50 56 52 55 58 54 56 51 43
150 146 131 124 114 65 64 67 56 39 24 35 36 34 19 28 35 39 41 40 44 44 47 47 47 43 36
137 130 123 121 110 63 66 63 30 42 33 27 27 29 30 29 33 32 36 40 42 46 45 45 40 32 27
128 123 115 88 68 68 57 57 37 24 26 26 28 32 33 33 35 37 42 40 46 44 40 29 26 22 20
120 115 68 57 65 65 54 47 32 31 29 29 33 33 35 35 36 38 37 38 42 38 26 26 25 22 18
86 76 67 68 62 53 51 30 27 30 33 32 34 33 36 36 41 41 38 41 28 27 28 26 22 17 18
74 69 68 65 57 53 49 26 29 31 33 37 35 35 40 36 36 35 35 31 25 29 28 25 23 20 25
43 47 61 55 48 46 44 33 30 34 35 41 44 45 40 40 39 36 29 24 29 29 24 22 22 29 25
24 26 32 37 40 38 39 31 30 31 33 34 36 34 32 28 25 22 22 25 26 23 20 24 32 28 25
20 22 26 30 32 33 26 29 28 29 30 32 34 35 34 31 26 22 23 23 21 20 27 35 31 29 25
20 23 23 27 23 29 27 27 28 30 32 34 35 33 33 33 31 28 24 20 19 30 37 34 32 28 25
21 21 23 24 27 25 23 24 29 29 30 30 23 21 20 23 28 28 24 19 30 37 36 34 31 29 24
Wind_Direction
295 292 292 295 298 299 298 301 294 295 295 294 293 293 290 291 291 289 288 287 289 287 287 286 284 284 287
292 304 301 294 306 307 303 298 298 298 296 294 292 290 289 290 290 287 286 286 286 286 284 287 283 287 287
306 300 307 308 303 302 301 298 296 294 293 291 286 282 282 283 281 280 282 283 283 285 284 285 287 283 285
309 310 308 304 302 300 297 296 291 289 290 289 281 274 279 276 277 277 275 281 285 281 282 283 282 285 282
309 306 306 302 299 299 298 298 299 297 296 290 284 280 268 273 272 273 270 271 274 277 277 276 283 283 282
309 306 304 303 306 307 303 295 298 296 285 280 281 276 270 276 272 269 269 272 268 267 270 278 283 286 284
306 305 305 306 305 301 301 299 296 286 247 263 268 252 267 255 261 255 256 268 270 273 277 277 282 284 270
303 305 306 306 310 304 312 304 286 291 277 250 253 265 265 265 267 267 268 274 277 280 278 284 280 269 260
304 305 307 310 304 308 307 308 293 258 251 250 255 264 271 273 274 275 268 277 277 279 283 276 267 259 259
305 305 301 301 304 308 304 304 287 269 258 256 264 266 268 272 276 279 274 279 282 279 269 271 264 261 241
297 297 299 304 303 299 304 292 286 274 271 273 266 276 276 277 275 273 272 272 271 263 266 268 256 235 222
293 291 294 298 296 298 300 289 283 285 282 273 278 277 273 272 270 270 277 274 257 259 264 258 246 214 194
278 280 282 286 283 284 287 285 274 266 275 270 273 272 274 276 275 272 263 250 253 259 256 239 207 185 192
260 261 264 266 274 272 282 277 273 272 274 274 273 273 272 271 267 251 242 246 256 258 221 193 180 188 186
239 239 245 256 261 272 269 281 282 281 278 278 275 271 265 258 252 241 242 247 259 211 181 175 181 177 189
226 234 240 251 251 265 273 279 279 281 283 286 281 271 261 247 240 236 237 238 222 178 172 177 177 184 190
222 224 235 245 260 265 268 271 284 285 290 302 285 276 254 235 224 218 216 217 179 172 176 179 183 190 187